Location: B
(0.0000°N, 0.0000°E)
Time: 04:09:22
(UTC+02:00)

Daily predictions for brighter satellites

Satellite Brightness Start Highest point End
(mag) Time Altitude Azimuth Time Altitude Azimuth Time Altitude Azimuth
Maqsat-H 4.1 05:12:12 28° E 05:12:12 28° E 05:16:36 10° E
Ariane H10 4.4 05:42:52 21° ESE 05:42:52 21° ESE 05:44:52 10° E
COSMOS 2428 3.6 05:43:12 43° ESE 05:43:12 43° ESE 05:48:25 10° NE
Ariane H10-3 3.6 05:46:04 71° NW 05:46:51 79° N 06:30:49 10° E
Ariane H10-3 3.6 05:46:04 72° NW 05:46:51 79° N 06:30:49 10° E
Ariane H10-3 3.6 05:46:05 72° NW 05:46:51 79° N 06:30:49 10° E
Ariane H10-3 3.6 05:46:05 72° NW 05:46:51 79° N 06:30:48 10° E
Ariane H10 4.2 05:56:13 29° E 05:56:13 29° E 05:59:50 10° E
ADEOS Rocket 3.7 05:50:12 10° NNE 05:57:30 72° ESE 06:01:50 29° S
Cosmos 2237 4.1 06:03:23 82° ESE 06:03:23 82° ESE 06:09:04 10° NNE
NOSS 3-4 (A) 3.8 05:57:48 10° NNW 06:05:17 80° WSW 06:13:02 10° SSE
NOSS 3-4 (C) 3.8 05:57:56 10° NNW 06:05:27 81° WSW 06:13:11 10° SSE
Hubble Space Telescope 3.5 06:10:08 11° N 06:10:08 11° N 06:10:38 10° N
Okean-O 4.5 06:09:36 10° N 06:11:09 21° N 06:11:09 21° N
BLOCK DM-SL R/B 3.4 06:16:11 60° WNW 06:17:07 82° N 06:25:03 10° E
Cosmos 1328 Rocket 4.4 06:17:01 30° SSE 06:18:53 49° E 06:23:10 10° NNE
Ariane Rocket 4.1 06:16:12 10° NNE 06:20:55 41° ESE 06:25:39 10° S
BREEZE-M DEB (TANK) 3.1 06:22:23 40° NE 06:22:34 40° ENE 06:27:00 10° SE
Cosmos 2112 Rocket 4.0 06:23:28 56° WNW 06:23:28 56° WNW 06:28:10 10° N
SEDSat Delta rocket 3.2 06:25:08 63° WNW 06:25:59 84° SSW 06:31:41 10° SE
ADEOS II 2.1 06:21:17 10° N 06:26:21 54° WNW 06:26:21 54° WNW
OAO 2 Rocket 4.2 06:27:58 35° NW 06:28:15 35° NW 06:32:57 10° NNE
Cosmos 2227 4.0 06:22:38 10° NNW 06:28:21 76° WSW 06:34:03 10° S
Cosmos 2360 Rocket 4.0 06:34:19 15° NW 06:34:19 15° NW 06:35:56 10° NNW
OAO 1 Rocket 4.4 06:32:03 54° WSW 06:32:52 62° SW 06:38:08 10° SE
Cosmos 2151 2.8 06:29:45 10° N 06:33:59 68° W 06:34:14 66° WSW
Meteor 1-31 Rocket 2.6 06:34:10 10° N 06:37:54 64° WNW 06:37:54 64° WNW
Cosmos 2228 Rocket 3.1 06:40:27 50° WSW 06:41:06 55° W 06:45:26 10° N
Cosmos 1417 Rocket 4.5 06:35:15 10° S 06:41:24 82° E 06:47:33 10° N
ARIANE 5 DEB (SYLDA) 4.4 06:26:05 24° W 06:42:12 85° S 06:48:16 10° E
Lacrosse 4 Rocket 1.6 06:41:45 26° S 06:43:52 65° ESE 06:47:57 10° NNE
ARIANE 44LP R/B 3.5 06:43:35 42° WSW 06:44:54 69° S 06:59:31 10° E
Cosmos 2237 Rocket 3.1 06:41:02 10° S 06:46:28 49° ESE 06:51:54 10° NNE
ARIANE 5 R/B 2.7 06:41:44 23° W 06:47:41 74° N 06:50:41 10° E
GPS 2-15 Rocket1 3.4 06:48:41 33° SW 06:50:28 54° SSE 06:55:01 10° E
Thor Agena Rocket 3.7 06:46:32 10° S 06:51:23 45° WSW 06:56:10 10° NNW
Cosmos 1328 4.3 06:49:05 10° NNW 06:52:47 37° W 06:52:50 37° W
Sakura Rocket 3.2 06:57:11 28° SW 06:59:03 57° SSE 07:03:40 10° ENE
COBE Rocket 4.1 06:54:16 10° NNE 06:59:23 83° E 07:04:36 10° S
ISS -1.5 06:56:41 10° NNW 06:59:39 34° NE 07:02:39 10° ESE
CZ-3 Stage 3 4.3 06:56:13 23° WSW 06:59:43 35° S 07:26:43 10° SE
Meteor 1-11 4.2 06:54:41 10° N 07:00:20 72° W 07:06:06 10° S
OAO 3 Rocket 3.3 07:02:49 18° WNW 07:06:04 50° SW 07:10:35 10° SE
CCE 1 Rocket 4.1 07:06:23 10° NW 07:10:08 52° NNE 07:14:22 10° ESE
Cosmos 1437 Rocket 4.0 07:10:04 20° W 07:10:15 20° W 07:13:05 10° NW
ARIANE 5 R/B 4.2 06:55:06 14° W 07:10:30 66° N 07:14:48 10° ENE
Cosmos 1633 Rocket 3.0 07:06:45 10° N 07:11:09 88° W 07:15:36 10° S
Cosmos 2219 Rocket 2.5 07:08:03 13° SW 07:12:52 46° WNW 07:18:11 10° N
Cosmos 2333 Rocket 2.2 07:07:50 10° SSW 07:13:26 68° WNW 07:19:05 10° N
Ariane H10 3.0 07:12:55 24° SW 07:13:46 34° S 07:15:51 10° ESE
Mugunghwa Rocket 3.9 07:11:53 10° WNW 07:18:11 73° SSW 07:24:34 10° SE
Cosmos 2058 4.0 07:17:00 10° NW 07:20:26 24° W 07:23:52 10° SSW
CSL-04 Debris 4.2 07:18:54 10° N 07:24:19 67° WNW 07:29:47 10° SSW
SPOT 3 Rocket 4.4 07:19:29 10° NNE 07:24:28 52° ESE 07:29:29 10° S
CZ-4 R/B 2.3 07:22:16 10° NNE 07:26:13 52° ESE 07:30:07 10° S
Cosmos 1346 4.3 07:24:39 10° NW 07:27:03 22° W 07:29:28 10° SSW
COSMOS 2428 4.4 07:25:16 11° W 07:27:05 12° WNW 07:29:24 10° NW
Cosmos 1703 3.2 07:23:54 10° NNW 07:27:48 63° W 07:31:44 10° S
RESURS DK-1 3.4 07:24:48 10° NW 07:28:06 23° WSW 07:31:25 10° SSW
IRS-1A Rocket 4.4 07:23:42 10° N 07:29:30 70° WNW 07:35:23 10° SSW
CSL-04 Rocket 4.0 07:24:51 10° N 07:30:03 45° WNW 07:35:13 10° SSW
Ariane 42L Rocket 4.3 07:26:37 10° WNW 07:30:05 49° NNE 07:43:26 10° E
Cosmos 1151 Rocket 3.5 07:26:29 10° SSW 07:30:28 39° W 07:34:28 10° NNW
Cosmos 967 Rocket 4.4 07:25:06 10° NNW 07:31:23 84° WSW 07:37:36 10° SSE
Meteor 1-4 Rocket 3.6 07:28:32 10° S 07:32:15 51° E 07:35:55 10° NNE
Cosmos 1271 Rocket 3.7 07:34:00 10° S 07:37:39 50° E 07:41:19 10° NNE
CZ-3B Rocket 3.6 07:14:13 10° WNW 07:40:42 75° NNE 07:45:23 10° E
SKYMED 2 3.8 07:38:14 10° SSE 07:42:34 79° E 07:46:53 10° N
ATLAS 3B R/B 3.0 07:37:30 10° SSW 07:45:03 75° WNW 07:52:44 10° NNE
BLOCK DM-SL R/B 3.6 07:04:32 10° W 07:49:11 88° N 07:53:52 10° E
